Location: Kitt Peak
(31.9639°N, 111.5992°W)
Time: 15:31:47
(UTC-07:00)

SRMSAT - Pass Details

Date: 18 December 2025
Orbit: 846 x 863 km, 20.0° (Epoch: 13 January)

Event Time Altitude Azimuth Distance (km) Brightness Sun altitude
Exits shadow 04:12:42 18° 142° (SE) 1,957 ? -39.0°
Drops below altitude 10° 04:14:53 10° 123° (ESE) 2,461 ? -38.6°
Sets 04:17:58 0° 109° (ESE) 3,400 ? -37.9°
